Regional Weather Roundup
Issued by NWS

Home | Current Version | Previous Version | Graphics & Text | Print | Product List | Glossary On
Versions: 1 2 3 4 5 6 7 8 9 10 11 12 13 14 15 16 17 18 19 20 21 22 23 24 25 26 27 28 29 30 31 32 33 34 35 36 37 38 39 40 41 42 43 44 45 46 47 48 49 50
000
ASUS43 KDMX 311504
RWRIA

WEATHER ROUNDUP FOR IOWA
NATIONAL WEATHER SERVICE DES MOINES IA
  ISSUED BY NWS QUAD CITIES IA IL
900 AM CST SAT JAN 31 2015

NOTE: "FAIR" INDICATES FEW OR NO CLOUDS BELOW 12,000 FEET WITH NO
SIGNIFICANT WEATHER AND/OR OBSTRUCTIONS TO VISIBILITY.

* - THESE STATIONS ARE NOT NWS STATIONS...THUS NOT UNDER NWS
QUALITY CONTROL.  THEY ALSO DO NOT REPORT WEATHER SUCH
AS PRECIPITATION OR FOG.

IAZ001>003-012>014-020>022-031>034-043>046-311600-
   NORTHWEST IOWA

CITY           SKY/WX    TMP DP  RH WIND       PRES   REMARKS
CHEROKEE *     CLOUDY    30  30 100 CALM      30.13S FOG
DENNISON *     CLOUDY    36  36 100 S9        30.13R FOG     WCI  29
LE MARS *      CLOUDY    32  30  93 CALM      30.13R
ORANGE CITY *  CLOUDY    30  27  86 E5        30.12R WCI  25
SIOUX CITY     CLOUDY    35  32  88 E5        30.12R WCI  31
SPENCER        CLOUDY    28  24  85 N6        30.15R WCI  22
$$

IAZ055>058-069>071-079>083-090>094-311600-
   SOUTHWEST IOWA

CITY           SKY/WX    TMP DP  RH WIND       PRES   REMARKS
ATLANTIC *     CLOUDY    36  36 100 SW13      30.17S WCI  27
AUDUBON *      CLOUDY    36  30  80 S9        30.16F FOG     WCI  29
CLARINDA *     CLOUDY    36  36 100 S10G16    30.21F WCI  28
COUNCIL BLFS * CLOUDY    36  36 100 S13       30.15S FOG     WCI  27
CRESTON *      CLOUDY    36  36 100 SW13      30.19S WCI  27
HARLAN *       CLOUDY    36  36 100 S10       30.19S FOG     WCI  28
LAMONI         MIX PCPN  34  32  92 SW12      30.22S FOG     WCI  25
$$

IAZ047>049-059>061-072>074-084-311600-
   CENTRAL IOWA

CITY           SKY/WX    TMP DP  RH WIND       PRES   REMARKS
AMES           CLOUDY    34  29  82 SW9       30.17R WCI  27
ANKENY *       CLOUDY    37  32  81 SW8       30.19R WCI  31
BOONE *        CLOUDY    36  32  87 SW8       30.15R WCI  29
CHARITON *     CLOUDY    36  30  80 SW9       30.21S WCI  29
DES MOINES     CLOUDY    37  31  78 SW8       30.19S WCI  31
GRINNELL *     CLOUDY    33  28  83 SW9       30.19S WCI  25
KNOXVILLE *    CLOUDY    36  28  75 SW10      30.19S WCI  28
MARSHALLTOWN   CLOUDY    32  26  78 SW3       30.16S
PELLA *        CLOUDY    36  30  79 SW6       30.22R WCI  31
PERRY *          N/A     37  34  89 SW7       30.17S WCI  31
$$

IAZ004>006-015-016-023>025-035-036-311600-
   NORTH CENTRAL IOWA

CITY           SKY/WX    TMP DP  RH WIND       PRES   REMARKS
ALGONA *       CLOUDY    28  27  93 W3        30.16R
CLARION *      CLOUDY    30  30 100 SW3       30.16R
ESTHERVILLE    CLOUDY    25  22  88 N13       30.15R FOG     WCI  14
FORT DODGE *   CLOUDY    32  27  80 N3        30.16R
MASON CITY     PTSUNNY   27  24  89 W5        30.15R WCI  22
WEBSTER CITY * CLOUDY    34  34 100 SW7       30.13S WCI  28
IOWA FALLS *   PTSUNNY   31  28  89 CALM      30.17R
$$

IAZ007>011-017>019-026>030-037>042-050>054-066-311600-
   NORTHEAST IOWA

CITY           SKY/WX    TMP DP  RH WIND       PRES   REMARKS
CEDAR RAPIDS   CLOUDY    32  26  78 SW10      30.18S WCI  24
CHARLES CITY * MOSUNNY   23  23 100 CALM      30.16R
CLINTON *      CLOUDY    28  23  80 W7        30.24S WCI  21
DECORAH *      MOSUNNY   23  19  86 CALM      30.15S
DUBUQUE        PTSUNNY   25  20  81 SW7       30.18R WCI  17
MONTICELLO *   CLOUDY    28  25  86 CALM      30.19S
OELWEIN *      PTSUNNY   27  23  86 S5        30.17S WCI  21
WATERLOO       CLOUDY    28  23  81 S3        30.17S
$$

IAZ064-065-067-068-078-311600-
   EAST CENTRAL IOWA

CITY           SKY/WX    TMP DP  RH WIND       PRES   REMARKS
DAVENPORT      CLOUDY    32  24  72 SW10      30.22S WCI  24
IOWA CITY      CLOUDY    32  25  75 VRB3      30.22F
MT. PLEASANT * CLOUDY    31  24  75 SW7       30.24F WCI  25
MUSCATINE *    CLOUDY    34  25  69 S6        30.24S WCI  29
QUAD CITIES    CLOUDY    33  24  69 SW10      30.22F WCI  25
$$

IAZ062-063-075>077-085>089-095>099-311600-
   SOUTHEAST IOWA

CITY           SKY/WX    TMP DP  RH WIND       PRES   REMARKS
BURLINGTON     CLOUDY    32  24  72 SW8       30.25S WCI  25
FAIRFIELD *    CLOUDY    32  25  74 SW8       30.23S WCI  25
FORT MADISON * CLOUDY    30  23  74 SW7       30.26S WCI  23
KEOKUK *       CLOUDY    32  23  69 SW8       30.25F WCI  25
OTTUMWA        CLOUDY    34  26  72 SW8       30.22R WCI  27
WASHINGTON *   CLOUDY    34  28  80 SW9       30.22F WCI  26
$$

ABBREVIATIONS USED IN REMARKS
   TC - TEMPERATURES IN CELSIUS
  WCI - WIND CHILL INDEX
   HX - HEAT INDEX
  VSB - VISIBILITY
$$



USA.gov is the U.S. government's official web portal to all federal, state and local government web resources and services.